Location: Unspecified
(0.0000°N, 0.0000°E)
Time: 09:16:57
(UTC+02:00)

Ariane H10+ - Visible Passes

Search period start: 23 May 2015 00:00
Search period end: 02 June 2015 00:00
Orbit: 279 x 31682 km, 6.7° (Epoch: 20 May)

Date Brightness Start Highest point End Pass type
(mag) Time Alt. Az. Time Alt. Az. Time Alt. Az.
24 May 7.7 00:56:13 10° W 09:15:44 81° N 09:27:16 10° E visible
24 May 6.1 19:01:41 10° WSW 19:08:08 68° SSE 03:20:11 10° E visible
25 May 3.8 13:09:37 10° W 13:16:50 52° SSW 13:19:10 10° ESE visible
25 May 8.8 22:56:33 10° W 23:52:45 88° N 07:32:21 10° E visible
26 May 4.6 17:08:36 10° WSW 17:11:41 43° SSE 17:24:22 10° E visible
27 May 5.9 03:18:43 10° W 11:21:08 88° S 11:25:50 10° E visible
27 May 7.9 21:00:23 10° WSW 21:16:36 84° S 05:33:43 10° E visible
29 May 7.5 01:02:07 10° W 09:21:08 83° N 09:31:26 10° E visible
29 May 6.3 19:05:25 10° WSW 19:12:30 71° SSE 03:26:25 10° E visible
30 May 8.9 22:59:48 10° W 00:15:29 87° N 07:35:06 10° E visible
31 May 4.8 17:10:38 10° WSW 17:14:00 46° SSE 17:29:35 10° E visible
01 Jun 5.6 03:25:34 10° W 11:22:52 83° S 11:27:13 10° ESE visible
